[[{"header":{"parameterUnit":"m.s-1","parameterCategory":2,"la1":30.2991,"la2":30.254,"lo1":-89.0895,"lo2":-89.0444,"dy":0.0017,"dx":0.0017,"nx":28,"ny":28,"refTime":"2023-10-18T21:00:00:Z","depth":"0","parameterNumber":2,"parameterNumberName":"U-component_of_CURRENTS"},"data":[0,0,0,0,0,0,0,0,0,0,0,0,0,0,0,0,0,0,0,0,0,0,0,0,0,0,0,0,0,0,0,0,0,0,0,0,0,0,0,0,0,0,0,0,0,0,0,0,0,0,0,0,0,0,0,0,0,0,0.2912,0.2911,0,0.2899,0.2899,0.2899,0.2899,0.2899,0.2899,0.2899,0.2857,0.2856,0.2854,0,0,0,0,0,0,0,0,0,0,0,0,0,0.2974,0.2973,0.2912,0.2911,0.2911,0.2899,0.2899,0.2899,0.2899,0.2899,0.2899,0.2899,0.2857,0.2856,0.2854,0,0,0,0,0,0,0,0,0,0,0,0,0,0.2952,0.2972,0.2912,0.291,0.291,0.2899,0.2899,0.2899,0.2899,0.2899,0.2899,0.2899,0.2858,0.2856,0.2854,0.2835,0,0,0.2848,0.2847,0,0,0,0,0,0,0,0,0.2954,0.295,0.2911,0.291,0.291,0.2902,0.2906,0.2876,0.2898,0.2902,0.2899,0.29,0.2869,0.2866,0.2863,0.2833,0.2831,0.2848,0.2846,0.2846,0.2845,0,0,0,0,0,0,0,0.2955,0.2951,0.2906,0.2911,0.291,0.2924,0.2921,0.2901,0.2883,0.2902,0.2902,0.2902,0.2869,0.2865,0.2862,0.2831,0.2848,0.2846,0.2845,0.2844,0.2881,0.2883,0,0,0,0,0,0,0.2955,0.2952,0.2906,0.2906,0.2934,0.2923,0.2919,0.2903,0.2884,0.2882,0.2901,0.2902,0.2868,0.2864,0.286,0.2954,0.2846,0.2844,0.2843,0.2879,0.2882,0.2884,0,0,0,0,0,0,0.2956,0.2951,0.2907,0.293,0.2926,0.2921,0.2904,0.2903,0.2909,0.2884,0.2881,0.2909,0.2868,0.2863,0.2854,0.2948,0.2843,0.2841,0.2876,0.288,0.2883,0.3067,0,0,0,0,0,0,0.2958,0.2951,0.2942,0.293,0.2924,0.2928,0.2903,0.2903,0.2908,0.2908,0.2889,0.2885,0.2868,0.2858,0.2853,0.2943,0.2839,0.2874,0.2878,0.2882,0.3058,0.3076,0.3091,0,0,0,0,0,0.296,0.2954,0.2941,0.2936,0.291,0.2929,0.2929,0.2926,0.2908,0.2928,0.2902,0.2886,0.2882,0.2856,0.285,0.2943,0.2872,0.2877,0.2881,0.3051,0.3073,0.3091,0,0,0,0,0,0,0.2969,0.2953,0.2938,0.2924,0.2937,0.293,0.2944,0.2932,0.2926,0.2923,0.2889,0.2884,0.2925,0.2887,0.286,0.2964,0.2884,0.2888,0.3015,0.3035,0.3052,0.3093,0.2838,0,0,0,0,0,0.2966,0.2965,0.2954,0.2949,0.2955,0.2947,0.2951,0.2953,0.2945,0.2943,0.293,0.292,0.2939,0.2945,0.2943,0.2975,0.2997,0.3036,0.3053,0.3068,0.3096,0.3171,0.3199,0.29,0.29,0.29,0,0,0.2969,0.296,0.2958,0.2953,0.2958,0.3001,0.2952,0.2974,0.3029,0.2937,0.2995,0.297,0.2955,0.3015,0.3032,0.2996,0.3175,0.3074,0.3087,0.3107,0.3179,0.3209,0.3235,0.2903,0.2903,0.2902,0,0,0.3004,0.2969,0.2995,0.3014,0.3031,0.3039,0.3049,0.3055,0.3079,0.3107,0.3084,0.3108,0.31,0.3142,0.3153,0.3251,0.3256,0.3252,0.338,0.3453,0.348,0.3503,0.3624,0.3656,0.3266,0.3266,0.3267,0,0.3014,0.3032,0.3009,0.3054,0.3084,0.3064,0.3123,0.3154,0.3162,0.3191,0.315,0.3191,0.3181,0.3286,0.3337,0.33,0.3343,0.331,0.348,0.3503,0.3524,0.3641,0.3675,0.3276,0.3275,0.3274,0.3273,0,0.3079,0.3102,0.3125,0.3178,0.321,0.3254,0.3295,0.3332,0.3337,0.3359,0.3434,0.3415,0.344,0.3464,0.3435,0.359,0.3578,0.3493,0.344,0.3566,0.3681,0.3713,0.3289,0.3286,0.3283,0.3281,0,0,0.3092,0.3158,0.3167,0.3213,0.3278,0.331,0.3416,0.3497,0.3552,0.3584,0.3658,0.3728,0.3697,0.3708,0.3688,0.3767,0.3975,0.3708,0.3707,0.3849,0.4188,0.4061,0.4082,0.3914,0.3919,0.3923,0.4232,0,0.3159,0.3253,0.3276,0.3388,0.3447,0.3477,0.3567,0.3639,0.3679,0.3743,0.378,0.3826,0.3801,0.3802,0.3895,0.392,0.4056,0.3902,0.4026,0.4031,0.3918,0.4113,0.3813,0.4049,0.4262,0.4267,0.4271,0,0.323,0.3282,0.3392,0.3489,0.3515,0.3576,0.369,0.3766,0.3865,0.3891,0.3961,0.3956,0.4097,0.4014,0.4231,0.4128,0.4206,0.4239,0.4249,0.4084,0.396,0.3943,0.4098,0.3968,0.4319,0.4315,0.4312,0,0.327,0.3369,0.3454,0.3491,0.3596,0.3649,0.3701,0.3804,0.3873,0.3975,0.4012,0.4142,0.4198,0.4309,0.4388,0.4325,0.4602,0.4506,0.4501,0.4494,0.424,0.42,0.429,0.471,0.471,0.4709,0.4708,0,0.3347,0.3424,0.3465,0.3522,0.3618,0.3666,0.377,0.3841,0.3926,0.4016,0.4076,0.4166,0.4271,0.4407,0.4475,0.4598,0.469,0.4592,0.4576,0.4297,0.426,0.4126,0.4073,0.472,0.4718,0.4715,0.4714,0,0.3425,0.3448,0.3553,0.3628,0.3649,0.3717,0.3805,0.3862,0.3943,0.4059,0.4094,0.4245,0.4408,0.4516,0.4707,0.4705,0.467,0.4841,0.4531,0.447,0.4268,0.4234,0.4226,0.4116,0.49,0.4899,0.4898,0,0.349,0.3544,0.3621,0.365,0.3688,0.3763,0.3804,0.3879,0.3935,0.4109,0.4162,0.4343,0.4438,0.4667,0.4676,0.4795,0.4676,0.4612,0.4423,0.4281,0.4234,0.41,0.3998,0.4208,0.4201,0.4196,0.4191,0,0.3617,0.3626,0.3687,0.3728,0.3764,0.3817,0.3872,0.3912,0.4001,0.4081,0.4197,0.4271,0.4434,0.4369,0.449,0.4525,0.4318,0.4504,0.4424,0.3782,0.3576,0.3447,0.4033,0.4143,0.4148,0.4152,0.4154,0.4156,0.3695,0.3739,0.3763,0.38,0.3827,0.3833,0.3821,0.3869,0.3927,0.3941,0.4117,0.4091,0.4069,0.4145,0.416,0.3958,0.4051,0.3806,0.3822,0.3737,0.3469,0.398,0.3994,0.3998,0.4001,0.4004,0.4006,0,0.3759,0.3774,0.3819,0.3817,0.3792,0.3812,0.3822,0.374,0.3725,0.3771,0.379,0.3657,0.3557,0.3531,0.3395,0.3276,0.3142,0.3201,0.2935,0.2904,0.3415,0.3212,0.2968,0.2969,0.2969,0.2969,0.2969,0.2969,0.3785,0.3807,0.38,0.3748,0.3724,0.3595,0.3552,0.3455,0.342,0.3247,0.3101,0.3091,0.311,0.3013,0.2833,0.2772,0.2604,0.2439,0.2574,0.2892,0.2948,0.3001,0.2799,0.2472,0.2472,0.185,0.1845,0.1842]},{"header":{"parameterUnit":"m.s-1","parameterCategory":2,"la1":30.2991,"la2":30.254,"lo1":-89.0895,"lo2":-89.0444,"dy":0.0017,"dx":0.0017,"nx":28,"ny":28,"refTime":"2023-10-18T21:00:00:Z","depth":"0","parameterNumber":3,"parameterNumberName":"V-component_of_CURRENTS"},"data":[0,0,0,0,0,0,0,0,0,0,0,0,0,0,0,0,0,0,0,0,0,0,0,0,0,0,0,0,0,0,0,0,0,0,0,0,0,0,0,0,0,0,0,0,0,0,0,0,0,0,0,0,0,0,0,0,0,0,-0.0211,-0.0211,0,-0.0245,-0.0245,-0.0246,-0.0303,-0.0304,-0.0305,-0.0306,-0.0352,-0.0352,-0.0353,0,0,0,0,0,0,0,0,0,0,0,0,0,-0.0214,-0.0214,-0.0211,-0.0211,-0.0211,-0.0245,-0.0245,-0.0246,-0.0303,-0.0304,-0.0306,-0.0307,-0.0352,-0.0352,-0.0353,0,0,0,0,0,0,0,0,0,0,0,0,0,-0.0228,-0.0214,-0.0211,-0.0243,-0.0246,-0.0244,-0.0245,-0.0246,-0.0303,-0.0304,-0.0306,-0.0307,-0.0352,-0.0352,-0.0353,-0.0327,0,0,-0.0354,-0.0355,0,0,0,0,0,0,0,0,-0.0227,-0.0228,-0.0238,-0.0241,-0.0244,-0.027,-0.0263,-0.0273,-0.0303,-0.0283,-0.0306,-0.0308,-0.0324,-0.0327,-0.0332,-0.0329,-0.0331,-0.0354,-0.0355,-0.0355,-0.0355,0,0,0,0,0,0,0,-0.0226,-0.0227,-0.0226,-0.0238,-0.0242,-0.0262,-0.0266,-0.0265,-0.0296,-0.0285,-0.0289,-0.029,-0.0326,-0.0331,-0.0333,-0.0332,-0.0354,-0.0355,-0.0355,-0.0355,-0.0332,-0.0332,0,0,0,0,0,0,-0.0216,-0.0226,-0.0225,-0.0227,-0.0238,-0.0261,-0.0265,-0.0262,-0.0296,-0.0302,-0.0289,-0.0292,-0.033,-0.0333,-0.0335,-0.0316,-0.0355,-0.0355,-0.0356,-0.0333,-0.0332,-0.0331,0,0,0,0,0,0,-0.0216,-0.0216,-0.0223,-0.0226,-0.0229,-0.0259,-0.0255,-0.0261,-0.027,-0.0299,-0.0306,-0.0291,-0.0331,-0.0334,-0.0329,-0.0318,-0.0356,-0.0356,-0.0334,-0.0333,-0.0332,-0.0272,0,0,0,0,0,0,-0.0216,-0.0215,-0.0206,-0.0225,-0.0228,-0.0213,-0.0254,-0.0261,-0.0268,-0.0274,-0.0303,-0.0309,-0.0332,-0.0328,-0.0329,-0.032,-0.0356,-0.0336,-0.0334,-0.0332,-0.0275,-0.0269,-0.0264,0,0,0,0,0,-0.0216,-0.0194,-0.0205,-0.0205,-0.0215,-0.0212,-0.0215,-0.0243,-0.0267,-0.0259,-0.028,-0.0308,-0.0319,-0.0327,-0.0329,-0.0319,-0.0336,-0.0334,-0.0332,-0.0278,-0.027,-0.0264,0,0,0,0,0,0,-0.0186,-0.0198,-0.0211,-0.0194,-0.0199,-0.0221,-0.0213,-0.0236,-0.0246,-0.0254,-0.0288,-0.0294,-0.029,-0.0306,-0.0314,-0.0308,-0.0335,-0.0333,-0.0293,-0.0286,-0.028,-0.0283,-0.0357,0,0,0,0,0,-0.0174,-0.0166,-0.0179,-0.0164,-0.0162,-0.0187,-0.0189,-0.0209,-0.0223,-0.023,-0.0251,-0.0271,-0.028,-0.0284,-0.0295,-0.0281,-0.0278,-0.0278,-0.0273,-0.0267,-0.0271,-0.0255,-0.0248,-0.0325,-0.0325,-0.0325,0,0,-0.0161,-0.0164,-0.016,-0.0158,-0.0164,-0.0158,-0.0192,-0.0189,-0.0194,-0.023,-0.0234,-0.0248,-0.0272,-0.0265,-0.0264,-0.0277,-0.0236,-0.0265,-0.026,-0.0267,-0.0252,-0.0245,-0.0238,-0.0323,-0.0324,-0.0324,0,0,-0.0127,-0.0126,-0.011,-0.0111,-0.0115,-0.0128,-0.0125,-0.0143,-0.0159,-0.0154,-0.019,-0.0192,-0.0203,-0.022,-0.023,-0.0194,-0.0206,-0.02,-0.0172,-0.0155,-0.0149,-0.0143,-0.0093,-0.0084,-0.0196,-0.0196,-0.0196,0,-0.0111,-0.0099,-0.0103,-0.0088,-0.0094,-0.0113,-0.0107,-0.0112,-0.013,-0.0142,-0.0147,-0.0168,-0.0183,-0.0186,-0.0177,-0.0181,-0.0164,-0.0196,-0.0147,-0.0142,-0.0137,-0.0088,-0.0078,-0.0193,-0.0193,-0.0194,-0.0194,0,-0.0071,-0.0066,-0.0051,-0.0047,-0.0045,-0.004,-0.0053,-0.0054,-0.0072,-0.009,-0.0094,-0.0103,-0.0123,-0.012,-0.0137,-0.0119,-0.0112,-0.0141,-0.0164,-0.0126,-0.0076,-0.0067,-0.0189,-0.019,-0.0191,-0.0191,0,0,-0.0043,-0.0031,-0.0028,-0.0033,-0.0032,-0.003,-0.0024,-0.0037,-0.0039,-0.0044,-0.0045,-0.0054,-0.0069,-0.0081,-0.0098,-0.0078,-0.0015,-0.0092,-0.0092,-0.0039,0.0052,0.0045,0.0054,-0.0035,-0.0034,-0.0034,0.0088,0,-0.0022,-0.0001,0.0002,0.0011,0.001,-0.0002,0.0007,-0.0004,-0.0013,-0.0009,-0.0023,-0.0021,-0.0052,-0.0049,-0.0038,-0.0017,0.0005,-0.0043,0.0004,0.0006,-0.0005,0.0061,0.0042,0.0146,0.0096,0.0098,0.0099,0,-0.0007,0.0006,0.0013,0.0013,0.0016,0.0026,0.0018,0.0025,0.0027,0.0028,0.0022,0.0009,0.0036,0.0005,0.0058,0.003,0.0038,0.0056,0.006,0.0031,0.0013,0.0091,0.0163,0.0008,0.0112,0.0111,0.011,0,-0.0028,-0.0,-0.0003,-0.0002,0.0013,0.0015,0.0026,0.0028,0.0054,0.0053,0.0093,0.0078,0.0134,0.0116,0.0148,0.0105,0.0227,0.0166,0.0167,0.0168,0.0148,0.0145,0.0072,0.0188,0.0187,0.0187,0.0187,0,-0.0043,-0.0044,-0.0009,-0.0013,0.0014,0.0016,0.0047,0.0051,0.0095,0.0174,0.0116,0.0211,0.0168,0.0225,0.0193,0.024,0.0262,0.0191,0.0197,0.0172,0.017,0.0028,-0.0053,0.0192,0.0191,0.019,0.0189,0,-0.0089,-0.0073,-0.0062,-0.0025,-0.0003,0.0013,0.0096,0.0142,0.0164,0.0276,0.0293,0.0354,0.045,0.0405,0.0439,0.0347,0.0278,0.0348,0.034,0.034,0.014,0.0065,0.0024,-0.0026,0.0351,0.0352,0.0352,0,-0.0119,-0.0119,-0.0059,-0.0016,0.0004,0.0055,0.0123,0.017,0.0253,0.0405,0.0494,0.0592,0.0731,0.0754,0.0608,0.054,0.0383,0.0413,0.0293,0.0142,0.0063,-0.0004,-0.0048,0.0318,0.0318,0.0318,0.0318,0,-0.0147,-0.0124,-0.0091,0.0003,0.0078,0.0173,0.0278,0.0364,0.0478,0.0614,0.0851,0.0969,0.0981,0.0929,0.0759,0.0667,0.0282,0.041,0.0251,0.003,-0.0043,-0.0091,0.0246,0.0319,0.0319,0.0319,0.0319,0.0319,-0.0141,-0.0109,-0.0035,0.0057,0.0151,0.0309,0.0429,0.0594,0.0796,0.1056,0.1139,0.1378,0.1165,0.0961,0.0773,0.0337,0.035,0.0164,0.0096,0.0051,-0.0048,0.0302,0.0366,0.0366,0.0366,0.0367,0.0367,0,-0.0086,-0.0036,0.0036,0.017,0.0304,0.0347,0.0564,0.073,0.1034,0.1286,0.1521,0.1569,0.1297,0.0944,0.0365,0.0051,-0.0073,-0.0124,-0.0248,-0.0271,0.0043,-0.0016,-0.003,-0.003,-0.003,-0.003,-0.003,-0.003,-0.0045,0.005,0.0094,0.031,0.0412,0.0639,0.0792,0.1037,0.1258,0.1602,0.1773,0.1871,0.1587,0.0569,-0.014,-0.0299,-0.0503,-0.0548,-0.0627,-0.0467,-0.0447,-0.0428,-0.0506,-0.0623,-0.0623,-0.0933,-0.0936,-0.0938]}],[{"header":{"parameterUnit":"m.s-1","parameterCategory":2,"la1":30.2991,"la2":30.254,"lo1":-89.0895,"lo2":-89.0444,"dy":0.0017,"dx":0.0017,"nx":28,"ny":28,"refTime":"2023-10-18T21:00:00:Z","depth":"2","parameterNumber":2,"parameterNumberName":"U-component_of_CURRENTS"},"data":[0,0,0,0,0,0,0,0,0,0,0,0,0,0,0,0,0,0,0,0,0,0,0,0,0,0,0,0,0,0,0,0,0,0,0,0,0,0,0,0,0,0,0,0,0,0,0,0,0,0,0,0,0,0,0,0,0,0,0.2158,0.2159,0,0.2188,0.2188,0.2188,0.2199,0.2199,0.2199,0.2199,0.2235,0.2236,0.2237,0,0,0,0,0,0,0,0,0,0,0,0,0,0.2167,0.2166,0.2158,0.2159,0.2159,0.2188,0.2188,0.2188,0.2199,0.2199,0.2199,0.2199,0.2235,0.2236,0.2237,0,0,0,0,0,0,0,0,0,0,0,0,0,0.2174,0.2166,0.2158,0.2169,0.2171,0.2187,0.2188,0.2188,0.2199,0.2199,0.2199,0.2199,0.2234,0.2236,0.2237,0.2243,0,0,0.2241,0.2242,0,0,0,0,0,0,0,0,0.2174,0.2174,0.2167,0.2169,0.217,0.2191,0.2204,0.2207,0.2199,0.2186,0.2199,0.2199,0.2222,0.2225,0.2227,0.2244,0.2246,0.2241,0.2242,0.2243,0.2243,0,0,0,0,0,0,0,0.2173,0.2173,0.2168,0.2168,0.217,0.2192,0.2193,0.2205,0.2202,0.2187,0.2188,0.2195,0.2223,0.2226,0.2228,0.2246,0.2241,0.2242,0.2243,0.2244,0.233,0.2331,0,0,0,0,0,0,0.217,0.2172,0.2167,0.2169,0.2175,0.2192,0.2192,0.2183,0.2201,0.2205,0.2195,0.2195,0.2223,0.2226,0.2229,0.2313,0.2243,0.2244,0.2245,0.2328,0.233,0.2332,0,0,0,0,0,0,0.217,0.2169,0.2166,0.2174,0.2175,0.2191,0.2181,0.2183,0.22,0.2208,0.2211,0.221,0.2223,0.2227,0.225,0.2312,0.2244,0.2246,0.2326,0.2329,0.2331,0.2432,0,0,0,0,0,0,0.217,0.2168,0.2171,0.2173,0.2175,0.2192,0.2181,0.2184,0.2204,0.2205,0.2222,0.2224,0.2224,0.2248,0.2251,0.2312,0.2247,0.2325,0.2328,0.233,0.2427,0.2438,0.2447,0,0,0,0,0,0.217,0.2177,0.217,0.2171,0.2173,0.2194,0.2197,0.2208,0.2205,0.2221,0.2225,0.2225,0.2269,0.225,0.2253,0.2317,0.2323,0.2327,0.233,0.2423,0.2436,0.2447,0,0,0,0,0,0,0.2177,0.2179,0.2172,0.2176,0.219,0.2197,0.2221,0.2217,0.2232,0.2235,0.2234,0.2237,0.229,0.2276,0.2255,0.2347,0.2301,0.2305,0.237,0.2382,0.2392,0.2389,0.2248,0,0,0,0,0,0.2179,0.2188,0.219,0.2196,0.2208,0.2213,0.2226,0.2227,0.2237,0.2245,0.2255,0.227,0.2304,0.2319,0.2338,0.2377,0.2392,0.2421,0.2431,0.2439,0.2438,0.2532,0.2551,0.2343,0.2343,0.2343,0,0,0.2182,0.2187,0.2191,0.22,0.2214,0.2234,0.2222,0.2246,0.2263,0.2246,0.2282,0.2306,0.2321,0.2376,0.2398,0.2373,0.2505,0.2444,0.2451,0.2445,0.2538,0.2558,0.2577,0.2345,0.2345,0.2344,0,0,0.2196,0.2201,0.2213,0.2234,0.2256,0.2262,0.2272,0.2285,0.2299,0.2341,0.2335,0.2385,0.243,0.2451,0.247,0.254,0.2558,0.2556,0.2606,0.2698,0.2717,0.2733,0.2776,0.2795,0.2559,0.2559,0.2559,0,0.2202,0.2204,0.2223,0.2246,0.2261,0.2277,0.229,0.2316,0.2333,0.2367,0.237,0.2466,0.2475,0.2544,0.257,0.2568,0.2605,0.2565,0.2715,0.2731,0.2746,0.2786,0.2806,0.2564,0.2564,0.2563,0.2563,0,0.2224,0.2231,0.225,0.2277,0.2299,0.2321,0.2349,0.2384,0.2417,0.2459,0.2549,0.2568,0.2634,0.265,0.2636,0.2742,0.2729,0.2724,0.269,0.2774,0.2809,0.2828,0.2572,0.257,0.2568,0.2567,0,0,0.2227,0.2252,0.2262,0.2295,0.2312,0.2357,0.2384,0.2443,0.2512,0.2568,0.2664,0.2722,0.2762,0.278,0.2775,0.2834,0.2969,0.2826,0.2828,0.2876,0.3157,0.3059,0.307,0.301,0.3014,0.3017,0.3137,0,0.2235,0.2264,0.2273,0.2338,0.236,0.2394,0.2435,0.2503,0.2571,0.268,0.2742,0.2836,0.2804,0.2851,0.2917,0.2952,0.3026,0.2935,0.3059,0.3061,0.2974,0.3092,0.2799,0.2875,0.3156,0.3159,0.3161,0,0.2251,0.2271,0.2289,0.238,0.2402,0.245,0.2554,0.2609,0.2738,0.2798,0.29,0.2949,0.3034,0.301,0.3137,0.3088,0.3139,0.316,0.3167,0.3051,0.3001,0.2836,0.2899,0.3193,0.3191,0.3188,0.3186,0,0.2251,0.2311,0.2326,0.2351,0.2431,0.2481,0.2556,0.2656,0.2731,0.2885,0.2959,0.3073,0.3157,0.3227,0.3276,0.3229,0.3426,0.337,0.3327,0.3319,0.3076,0.304,0.35,0.35,0.35,0.3499,0.3499,0,0.2244,0.2297,0.2349,0.2379,0.2478,0.2533,0.2665,0.2743,0.2859,0.2966,0.3041,0.3118,0.3228,0.3334,0.335,0.3406,0.3504,0.3357,0.3363,0.3099,0.3066,0.3336,0.3315,0.3504,0.3503,0.3502,0.3501,0,0.2233,0.2248,0.2319,0.2415,0.2471,0.2561,0.2732,0.2831,0.2918,0.3044,0.3088,0.3219,0.332,0.34,0.3535,0.3504,0.3551,0.3558,0.3217,0.3179,0.3351,0.3334,0.3488,0.3486,0.3484,0.3483,0.3482,0,0.2229,0.2228,0.2353,0.2423,0.2477,0.2624,0.2718,0.285,0.2918,0.3075,0.3117,0.3267,0.331,0.3464,0.345,0.3474,0.3569,0.3236,0.308,0.337,0.336,0.3346,0.3332,0.2796,0.2789,0.2784,0.2779,0,0.2222,0.2247,0.2325,0.2444,0.2562,0.2651,0.278,0.2819,0.2945,0.3008,0.3069,0.3115,0.324,0.3129,0.32,0.317,0.3189,0.3122,0.3576,0.2837,0.2725,0.2713,0.272,0.273,0.2735,0.2739,0.2741,0.2743,0.2249,0.2297,0.2389,0.2475,0.2596,0.2603,0.2642,0.2712,0.2759,0.2758,0.2909,0.2874,0.2912,0.2823,0.276,0.2725,0.2925,0.2784,0.2797,0.2818,0.2709,0.26,0.256,0.2563,0.2566,0.2569,0.2572,0,0.2273,0.2316,0.2416,0.249,0.2532,0.2622,0.2627,0.2568,0.2519,0.2567,0.2569,0.2354,0.228,0.2337,0.2181,0.218,0.2133,0.2105,0.2008,0.2059,0.2104,0.1955,0.1607,0.1604,0.1601,0.1598,0,0,0.2291,0.2365,0.2356,0.2362,0.2439,0.2404,0.2366,0.2258,0.2201,0.2085,0.2049,0.2183,0.2257,0.1901,0.1852,0.17,0.1866,0.1636,0.2411,0.2347,0.2388,0.25,0.233,0,0,0,0,0]},{"header":{"parameterUnit":"m.s-1","parameterCategory":2,"la1":30.2991,"la2":30.254,"lo1":-89.0895,"lo2":-89.0444,"dy":0.0017,"dx":0.0017,"nx":28,"ny":28,"refTime":"2023-10-18T21:00:00:Z","depth":"2","parameterNumber":3,"parameterNumberName":"V-component_of_CURRENTS"},"data":[0,0,0,0,0,0,0,0,0,0,0,0,0,0,0,0,0,0,0,0,0,0,0,0,0,0,0,0,0,0,0,0,0,0,0,0,0,0,0,0,0,0,0,0,0,0,0,0,0,0,0,0,0,0,0,0,0,0,0.0072,0.0072,0,0.0029,0.0029,0.0028,0.0,-0.0,-0.0,-0.0,-0.0056,-0.0057,-0.0058,0,0,0,0,0,0,0,0,0,0,0,0,0,0.0096,0.0095,0.0072,0.0072,0.0072,0.003,0.0029,0.0028,0.0,-0.0,-0.0,-0.0,-0.0055,-0.0057,-0.0059,0,0,0,0,0,0,0,0,0,0,0,0,0,0.0072,0.0095,0.0073,0.0053,0.0051,0.003,0.0029,0.0028,0.0,-0.0,-0.0,-0.0,-0.0055,-0.0057,-0.0059,-0.0068,0,0,-0.0065,-0.0066,0,0,0,0,0,0,0,0,0.0073,0.0071,0.0056,0.0054,0.0052,0.0021,0.0017,-0.0004,0.0,0.0019,-0.0,-0.0001,-0.0031,-0.0035,-0.0043,-0.007,-0.0073,-0.0065,-0.0066,-0.0067,-0.0068,0,0,0,0,0,0,0,0.0075,0.0072,0.0055,0.0056,0.0053,0.0034,0.0031,0.0012,-0.0005,0.0017,0.0015,0.0011,-0.0032,-0.0041,-0.0045,-0.0074,-0.0065,-0.0067,-0.0068,-0.0069,-0.0099,-0.0099,0,0,0,0,0,0,0.0084,0.0074,0.0056,0.0053,0.0063,0.0034,0.0031,0.003,-0.0005,-0.001,0.0012,0.001,-0.0038,-0.0042,-0.0047,-0.0042,-0.0067,-0.0069,-0.007,-0.0099,-0.0099,-0.0099,0,0,0,0,0,0,0.0084,0.0083,0.0058,0.0063,0.0059,0.0035,0.0034,0.0029,0.0022,-0.0009,-0.0014,0.001,-0.0038,-0.0044,-0.0057,-0.0045,-0.007,-0.0072,-0.01,-0.0099,-0.0099,-0.0045,0,0,0,0,0,0,0.0085,0.0083,0.0085,0.0064,0.0059,0.0054,0.0034,0.0029,0.0021,0.0018,-0.0012,-0.0018,-0.0039,-0.0054,-0.0059,-0.0049,-0.0074,-0.0101,-0.01,-0.0099,-0.0047,-0.0042,-0.0038,0,0,0,0,0,0.0086,0.0092,0.0086,0.0084,0.0063,0.0054,0.005,0.0031,0.0021,0.0023,0.0002,-0.0017,-0.0052,-0.0055,-0.0061,-0.0051,-0.0101,-0.01,-0.0099,-0.0049,-0.0043,-0.0038,0,0,0,0,0,0,0.01,0.0089,0.0082,0.0083,0.0074,0.005,0.0049,0.0036,0.002,0.0017,-0.0013,-0.002,-0.0028,-0.0047,-0.0049,-0.0058,-0.0079,-0.0079,-0.0039,-0.0034,-0.0029,-0.0001,-0.0075,0,0,0,0,0,0.0106,0.0109,0.0093,0.0095,0.0093,0.0072,0.0065,0.0054,0.0037,0.003,0.0008,-0.0014,-0.003,-0.0037,-0.0057,-0.006,-0.0073,-0.0058,-0.0053,-0.0049,-0.0031,-0.0042,-0.0037,-0.0095,-0.0095,-0.0095,0,0,0.011,0.0105,0.0106,0.0099,0.0089,0.01,0.0068,0.0064,0.0076,0.0026,0.0032,-0.0002,-0.0029,-0.0033,-0.0038,-0.0046,-0.0041,-0.0048,-0.0044,-0.0028,-0.0041,-0.0035,-0.003,-0.0095,-0.0095,-0.0095,0,0,0.0131,0.012,0.0134,0.0133,0.0127,0.0117,0.0119,0.01,0.0097,0.0092,0.0061,0.0039,0.0013,-0.0001,-0.0012,0.0006,-0.0021,-0.0005,0.0044,0.0033,0.0038,0.0042,0.0027,0.003,0.0001,0.0001,0.0002,0,0.0137,0.016,0.0136,0.0154,0.0168,0.0131,0.016,0.0148,0.0127,0.014,0.0104,0.0073,0.0034,0.0044,0.004,0.0018,0.0005,0.0026,0.004,0.0044,0.0047,0.0031,0.0033,0.0004,0.0004,0.0004,0.0003,0,0.0175,0.0195,0.0204,0.0222,0.0228,0.0245,0.0234,0.0237,0.0221,0.0213,0.0212,0.015,0.014,0.0112,0.0077,0.0086,0.0067,0.0043,0.0029,0.0057,0.0037,0.0038,0.0008,0.0007,0.0006,0.0006,0,0,0.0194,0.0228,0.0234,0.0272,0.0274,0.0291,0.0312,0.0337,0.0384,0.0323,0.0371,0.0295,0.0259,0.0243,0.0189,0.0162,0.0152,0.0114,0.0112,0.0106,0.0127,0.0086,0.0083,0.013,0.0131,0.0131,0.0101,0,0.0239,0.0308,0.0305,0.0375,0.0417,0.0405,0.0444,0.0457,0.0459,0.049,0.0416,0.0432,0.0312,0.0315,0.026,0.0187,0.0159,0.0163,0.0097,0.0095,0.006,0.0084,0.0103,0.0076,0.0102,0.0102,0.0103,0,0.0286,0.0334,0.0415,0.0495,0.0513,0.0548,0.063,0.0658,0.0679,0.0685,0.0658,0.0606,0.0546,0.0452,0.0321,0.0328,0.0236,0.0166,0.0163,0.0112,0.0057,0.0054,0.0077,0.0104,0.0104,0.0104,0.0104,0,0.0348,0.0416,0.0496,0.0518,0.0588,0.0638,0.068,0.0726,0.0797,0.082,0.0866,0.077,0.0744,0.0604,0.0411,0.0382,0.0276,0.0223,0.0103,0.0099,0.0097,0.0092,0.0158,0.0158,0.0159,0.0159,0.0159,0,0.0416,0.0483,0.0537,0.059,0.0708,0.0723,0.0854,0.089,0.0969,0.1062,0.0971,0.1,0.0781,0.0677,0.0488,0.0293,0.0331,0.0125,0.0094,0.0114,0.0111,0.0121,0.0117,0.0157,0.0158,0.0158,0.0158,0,0.0492,0.0513,0.062,0.0711,0.0746,0.0838,0.098,0.1084,0.1131,0.1247,0.1265,0.1193,0.103,0.0808,0.0592,0.0411,0.023,0.0159,0.019,0.0163,0.0041,0.004,0.0029,0.0027,0.0026,0.0025,0.0024,0,0.0547,0.0611,0.0723,0.0791,0.0843,0.0969,0.1074,0.1166,0.1282,0.135,0.142,0.1311,0.1209,0.0873,0.0559,0.0257,0.022,0.0106,0.0043,0.0059,0.003,0.0031,0.0032,0.006,0.006,0.0059,0.0059,0,0.0683,0.0713,0.0799,0.0922,0.1035,0.1173,0.1323,0.1433,0.1528,0.1587,0.1612,0.1531,0.1208,0.0878,0.0495,0.0293,0.0147,0.0086,0.0123,0.0083,0.0084,0.0057,0.0058,0.0055,0.0055,0.0056,0.0056,0.0056,0.0794,0.0869,0.096,0.1069,0.1196,0.1353,0.1444,0.1577,0.1707,0.1747,0.1702,0.1545,0.1251,0.0695,0.04,0.0096,0.0093,-0.0016,-0.0012,-0.0008,-0.0007,-0.0009,-0.0055,-0.0055,-0.0055,-0.0055,-0.0055,0,0.0921,0.0986,0.1103,0.122,0.1341,0.1394,0.1589,0.1634,0.1716,0.1745,0.1688,0.1357,0.1041,0.0709,0.0251,-0.0012,-0.0023,-0.0088,-0.004,-0.0034,-0.003,-0.0028,-0.0082,-0.0083,-0.0084,-0.0084,0,0,0.1,0.1112,0.1141,0.1311,0.1388,0.1513,0.1597,0.1644,0.1676,0.1619,0.1527,0.1423,0.1076,0.0745,0.0405,0.0156,0.0117,0.0105,0.0153,0.0255,0.0263,0.0036,0.0048,0,0,0,0,0]}],[{"header":{"parameterUnit":"m.s-1","parameterCategory":2,"la1":30.2991,"la2":30.254,"lo1":-89.0895,"lo2":-89.0444,"dy":0.0017,"dx":0.0017,"nx":28,"ny":28,"refTime":"2023-10-18T21:00:00:Z","depth":"4","parameterNumber":2,"parameterNumberName":"U-component_of_CURRENTS"},"data":[0,0,0,0,0,0,0,0,0,0,0,0,0,0,0,0,0,0,0,0,0,0,0,0,0,0,0,0,0,0,0,0,0,0,0,0,0,0,0,0,0,0,0,0,0,0,0,0,0,0,0,0,0,0,0,0,0,0,0.1236,0.1237,0,0.1298,0.1298,0.1299,0.1351,0.1351,0.1352,0.1353,0.1425,0.1426,0.1427,0,0,0,0,0,0,0,0,0,0,0,0,0,0.1161,0.1162,0.1236,0.1237,0.1238,0.1298,0.1298,0.1299,0.135,0.1351,0.1352,0.1353,0.1424,0.1426,0.1427,0,0,0,0,0,0,0,0,0,0,0,0,0,0.1203,0.1162,0.1236,0.1272,0.1276,0.1298,0.1298,0.1299,0.135,0.1351,0.1352,0.1354,0.1424,0.1426,0.1428,0.1417,0,0,0.1433,0.1434,0,0,0,0,0,0,0,0,0.1201,0.1206,0.1266,0.127,0.1275,0.1319,0.1298,0.134,0.135,0.132,0.1353,0.1354,0.1391,0.1396,0.1402,0.142,0.1423,0.1433,0.1434,0.1435,0.1436,0,0,0,0,0,0,0,0.1198,0.1203,0.1259,0.1267,0.1272,0.1285,0.1292,0.1306,0.1347,0.1323,0.1327,0.1337,0.1393,0.14,0.1404,0.1424,0.1433,0.1435,0.1436,0.1437,0.1523,0.1524,0,0,0,0,0,0,0.1193,0.12,0.1257,0.1261,0.1242,0.1286,0.1293,0.1302,0.1347,0.1355,0.1336,0.1339,0.1396,0.1402,0.1407,0.1482,0.1435,0.1437,0.1438,0.1522,0.1523,0.1524,0,0,0,0,0,0,0.1191,0.1197,0.1254,0.1234,0.1242,0.1286,0.1295,0.1303,0.1342,0.1357,0.1366,0.1371,0.1397,0.1404,0.1448,0.1482,0.1438,0.1439,0.152,0.1522,0.1524,0.1577,0,0,0,0,0,0,0.1189,0.1196,0.1214,0.1233,0.1243,0.1285,0.1295,0.1303,0.1345,0.1351,0.139,0.1396,0.1399,0.1445,0.1449,0.1483,0.1441,0.1519,0.1521,0.1523,0.1573,0.158,0.1586,0,0,0,0,0,0.1186,0.1199,0.1214,0.1222,0.1261,0.1286,0.1293,0.1326,0.1346,0.1365,0.1395,0.1396,0.1462,0.1447,0.1452,0.1488,0.1518,0.152,0.1523,0.1571,0.1579,0.1585,0,0,0,0,0,0,0.1179,0.1206,0.1223,0.1246,0.1275,0.1296,0.132,0.1342,0.138,0.1395,0.141,0.1418,0.1467,0.1468,0.1452,0.1518,0.149,0.1494,0.1525,0.1533,0.1539,0.1537,0.1442,0,0,0,0,0,0.1184,0.1203,0.123,0.1253,0.1268,0.13,0.1321,0.1344,0.1373,0.1393,0.142,0.1448,0.1475,0.1498,0.1514,0.1552,0.1558,0.1578,0.1584,0.159,0.1592,0.1629,0.1638,0.1533,0.1533,0.1533,0,0,0.1188,0.1207,0.1219,0.1254,0.1279,0.1297,0.1316,0.1354,0.1374,0.1393,0.1439,0.147,0.1488,0.1531,0.1553,0.1543,0.1625,0.1593,0.1597,0.1597,0.1632,0.1643,0.1652,0.1535,0.1535,0.1534,0,0,0.1193,0.1224,0.1238,0.126,0.1302,0.1318,0.1336,0.1374,0.14,0.1445,0.1465,0.1521,0.1557,0.1583,0.1598,0.1648,0.1651,0.1658,0.1696,0.1732,0.1741,0.1749,0.1778,0.1788,0.1666,0.1666,0.1666,0,0.1202,0.1214,0.1247,0.1264,0.1282,0.1329,0.1344,0.1373,0.1423,0.1451,0.1467,0.1559,0.158,0.1638,0.1661,0.1663,0.1681,0.1667,0.1741,0.1748,0.1756,0.1783,0.1794,0.1669,0.1669,0.1669,0.1668,0,0.1205,0.1224,0.1236,0.1268,0.1297,0.1318,0.1357,0.1398,0.1442,0.1477,0.1557,0.1602,0.1661,0.1682,0.169,0.1759,0.1754,0.174,0.1722,0.1769,0.1795,0.1805,0.1673,0.1672,0.1671,0.1671,0,0,0.1193,0.1228,0.1236,0.1244,0.1297,0.1315,0.1362,0.1411,0.1458,0.1526,0.1592,0.166,0.1713,0.1733,0.1767,0.1808,0.1882,0.1805,0.1805,0.1833,0.1966,0.1842,0.1841,0.1886,0.1888,0.1889,0.1966,0,0.1185,0.1196,0.1227,0.1249,0.1252,0.1312,0.1353,0.1414,0.1479,0.1557,0.1632,0.171,0.1722,0.1781,0.1823,0.1882,0.1909,0.1862,0.1915,0.1916,0.18,0.1848,0.1895,0.1974,0.1976,0.1977,0.1979,0,0.1171,0.1176,0.1186,0.1227,0.1241,0.1274,0.1358,0.1407,0.1523,0.1585,0.1686,0.1748,0.1856,0.1844,0.1961,0.1936,0.1948,0.1974,0.1977,0.1847,0.181,0.1914,0.1996,0.1995,0.1994,0.1992,0.1991,0,0.1122,0.1149,0.1152,0.1164,0.1222,0.1258,0.1314,0.1423,0.1494,0.1624,0.171,0.1815,0.1915,0.1954,0.2024,0.2004,0.2127,0.21,0.1989,0.1981,0.2046,0.2037,0.2136,0.2136,0.2136,0.2135,0.2135,0,0.1079,0.1082,0.1131,0.1133,0.1163,0.1232,0.1312,0.1387,0.1532,0.1627,0.1738,0.1831,0.1951,0.2035,0.205,0.2064,0.2149,0.2001,0.1993,0.2067,0.2059,0.2054,0.2043,0.2138,0.2138,0.2137,0.2137,0,0.1008,0.1043,0.1047,0.1109,0.1139,0.1169,0.1316,0.1382,0.1532,0.1667,0.1723,0.1892,0.2001,0.2082,0.2167,0.2106,0.2119,0.2081,0.2172,0.2166,0.1941,0.1933,0.1975,0.1971,0.1968,0.1965,0.1963,0,0.0948,0.095,0.1022,0.1045,0.1075,0.1146,0.121,0.1365,0.1446,0.1683,0.1736,0.1906,0.1991,0.2037,0.2102,0.2118,0.2077,0.2059,0.1976,0.1937,0.1926,0.1922,0.1918,0.1958,0.1957,0.1957,0.1956,0,0.0841,0.0899,0.0919,0.0972,0.1029,0.1094,0.1198,0.1251,0.144,0.1589,0.1725,0.1796,0.191,0.197,0.1998,0.1994,0.2066,0.2025,0.203,0.1953,0.1918,0.1909,0.1908,0.1945,0.1946,0.1947,0.1948,0,0.0782,0.0774,0.084,0.0884,0.0964,0.1027,0.1087,0.1193,0.1303,0.1555,0.1585,0.1761,0.1901,0.1905,0.1928,0.1927,0.1886,0.1802,0.1818,0.1831,0.1743,0.1674,0.1626,0,0,0,0,0,0.0712,0.0721,0.0748,0.0809,0.0899,0.0954,0.1077,0.1148,0.1315,0.1376,0.1489,0.1583,0.1667,0.1743,0.1712,0.183,0.1868,0.178,0.1773,0.1884,0.1897,0.1803,0,0,0,0,0,0,0.068,0.07,0.0713,0.0758,0.0795,0.0885,0.0963,0.1071,0.1112,0.1287,0.1344,0.1477,0.1576,0.1682,0.1685,0.1703,0.166,0.1878,0.1873,0.1877,0.1889,0.1899,0.1807,0,0,0,0,0]},{"header":{"parameterUnit":"m.s-1","parameterCategory":2,"la1":30.2991,"la2":30.254,"lo1":-89.0895,"lo2":-89.0444,"dy":0.0017,"dx":0.0017,"nx":28,"ny":28,"refTime":"2023-10-18T21:00:00:Z","depth":"4","parameterNumber":3,"parameterNumberName":"V-component_of_CURRENTS"},"data":[0,0,0,0,0,0,0,0,0,0,0,0,0,0,0,0,0,0,0,0,0,0,0,0,0,0,0,0,0,0,0,0,0,0,0,0,0,0,0,0,0,0,0,0,0,0,0,0,0,0,0,0,0,0,0,0,0,0,0.0107,0.0106,0,0.0078,0.0078,0.0078,0.0068,0.0068,0.0068,0.0068,0.0038,0.0037,0.0036,0,0,0,0,0,0,0,0,0,0,0,0,0,0.0127,0.0127,0.0107,0.0106,0.0106,0.0078,0.0078,0.0077,0.0068,0.0068,0.0068,0.0069,0.0039,0.0037,0.0036,0,0,0,0,0,0,0,0,0,0,0,0,0,0.011,0.0127,0.0107,0.0099,0.0098,0.0079,0.0078,0.0077,0.0068,0.0068,0.0068,0.0069,0.0039,0.0038,0.0036,0.0021,0,0,0.0032,0.0031,0,0,0,0,0,0,0,0,0.0111,0.0109,0.01,0.0099,0.0098,0.0078,0.0074,0.0059,0.0068,0.0078,0.0068,0.0069,0.0052,0.0049,0.0042,0.0019,0.0018,0.0031,0.0031,0.003,0.0029,0,0,0,0,0,0,0,0.0112,0.011,0.0094,0.01,0.0099,0.0088,0.0086,0.0071,0.0063,0.0077,0.0077,0.0075,0.0051,0.0043,0.0041,0.0018,0.0031,0.003,0.0029,0.0029,0.0,0.0,0,0,0,0,0,0,0.0118,0.0111,0.0095,0.0094,0.0106,0.0088,0.0085,0.0083,0.0063,0.006,0.0075,0.0075,0.0046,0.0043,0.004,0.0044,0.003,0.0028,0.0028,0.0,0.0,0.0,0,0,0,0,0,0,0.0119,0.0117,0.0097,0.0103,0.0099,0.0087,0.0085,0.0083,0.0079,0.0061,0.0059,0.0075,0.0046,0.0042,0.0033,0.0042,0.0028,0.0026,-0.0,0.0,0.0,0.0036,0,0,0,0,0,0,0.0119,0.0117,0.0119,0.0103,0.0099,0.0092,0.0085,0.0082,0.0078,0.0078,0.006,0.0057,0.0046,0.0036,0.0032,0.0039,0.0025,-0.0,0.0,0.0,0.0035,0.0038,0.004,0,0,0,0,0,0.012,0.0122,0.0119,0.0117,0.0101,0.0092,0.0089,0.0081,0.0078,0.0078,0.0067,0.0058,0.0035,0.0035,0.003,0.0037,-0.0,-0.0,0.0,0.0034,0.0037,0.004,0,0,0,0,0,0,0.0128,0.0121,0.0117,0.0115,0.0108,0.0091,0.009,0.0083,0.0074,0.0074,0.0058,0.0054,0.0049,0.0036,0.0037,0.0029,0.0016,0.0016,0.0043,0.0046,0.0049,0.0071,0.0024,0,0,0,0,0,0.0131,0.0133,0.0121,0.012,0.0118,0.0105,0.01,0.0094,0.0083,0.008,0.0068,0.0055,0.0045,0.0041,0.0028,0.0023,-0.0003,0.0025,0.0028,0.003,0.0044,0.0003,0.0004,0.0001,0.0001,0.0001,0,0,0.0133,0.013,0.013,0.0122,0.0116,0.0123,0.0103,0.0099,0.011,0.0077,0.0085,0.0062,0.0045,0.0041,0.0038,0.0033,0.0013,0.003,0.0033,0.0046,0.0004,0.0004,0.0004,0.0002,0.0002,0.0002,0,0,0.0145,0.0136,0.0146,0.0146,0.0141,0.0134,0.0136,0.0122,0.0122,0.012,0.0102,0.0085,0.0071,0.006,0.0054,0.0062,0.0027,0.0055,0.0088,0.0048,0.0048,0.0048,0.0002,-0.0003,0.0058,0.0059,0.0059,0,0.0149,0.0165,0.0147,0.0161,0.0172,0.0144,0.0166,0.0157,0.0143,0.0147,0.0131,0.0106,0.0084,0.0085,0.0086,0.0069,0.0037,0.0078,0.0052,0.0051,0.005,0.0003,-0.0003,0.006,0.006,0.006,0.006,0,0.0176,0.0191,0.0197,0.0213,0.0215,0.0227,0.0219,0.022,0.0212,0.0201,0.0194,0.0156,0.0145,0.0129,0.0111,0.0098,0.0073,0.0057,0.0045,0.0052,0.0002,-0.0004,0.0063,0.0062,0.0062,0.0061,0,0,0.0188,0.0214,0.022,0.0245,0.025,0.0258,0.0275,0.0285,0.0299,0.027,0.0281,0.0249,0.0218,0.0208,0.0173,0.0136,0.0089,0.0098,0.0095,0.0055,-0.0008,-0.0009,-0.0017,0.0064,0.0063,0.0063,-0.0046,0,0.0222,0.0268,0.0272,0.0321,0.0347,0.0341,0.0363,0.0363,0.035,0.0346,0.0302,0.0293,0.0251,0.024,0.0197,0.0118,0.0076,0.012,-0.0011,-0.0015,-0.0014,-0.0023,0.0061,-0.0051,-0.0052,-0.0053,-0.0054,0,0.0259,0.0287,0.0344,0.0393,0.0404,0.0431,0.0464,0.0479,0.0461,0.0448,0.042,0.0374,0.0325,0.0282,0.0158,0.0186,0.0099,0.003,0.0024,0.0012,-0.0027,-0.0057,-0.0066,-0.0065,-0.0064,-0.0064,-0.0063,0,0.0292,0.0343,0.0397,0.0413,0.0454,0.0489,0.0514,0.0515,0.054,0.0511,0.0509,0.0435,0.0401,0.029,0.0144,0.0149,-0.0009,-0.0021,-0.0104,-0.0107,-0.0089,-0.0088,-0.0109,-0.0108,-0.0108,-0.0108,-0.0108,0,0.0336,0.038,0.0422,0.0455,0.0524,0.0538,0.0603,0.0607,0.062,0.0642,0.0568,0.055,0.04,0.0289,0.0157,0.0004,-0.0002,-0.0096,-0.013,-0.0074,-0.0069,-0.0095,-0.0092,-0.0112,-0.0111,-0.011,-0.011,0,0.0365,0.0394,0.0458,0.0517,0.0545,0.0595,0.0677,0.0715,0.0715,0.0738,0.0734,0.0636,0.0491,0.0324,0.0126,0.0029,-0.0125,-0.0182,-0.0117,-0.0147,-0.0199,-0.0193,-0.0269,-0.027,-0.027,-0.0271,-0.0271,0,0.0387,0.0423,0.0503,0.0549,0.0586,0.0664,0.0722,0.0762,0.0794,0.0783,0.0787,0.0669,0.0578,0.0301,0.012,-0.0129,-0.0162,-0.0241,-0.0205,-0.0188,-0.0214,-0.0207,-0.02,-0.0272,-0.0273,-0.0273,-0.0273,0,0.0423,0.045,0.0501,0.0595,0.0671,0.075,0.0827,0.0856,0.0887,0.0891,0.0831,0.0695,0.0527,0.0309,0.0109,-0.0069,-0.0185,-0.0249,-0.0248,-0.0215,-0.0193,-0.0217,-0.0209,-0.0276,-0.0275,-0.0275,-0.0275,0,0.0448,0.0483,0.0552,0.0637,0.0729,0.0802,0.0843,0.088,0.0917,0.0898,0.087,0.0697,0.0599,0.0338,0.0149,-0.0022,-0.0053,-0.0097,-0.0104,-0.0104,-0.0022,0.0032,-0.0007,0,0,0,0,0,0.0468,0.0512,0.059,0.068,0.077,0.0823,0.0898,0.0925,0.0946,0.0917,0.0901,0.0745,0.0488,0.0366,0.0197,0.0128,-0.0094,-0.0076,-0.0151,-0.0289,-0.0286,-0.0217,0,0,0,0,0,0,0.0483,0.0552,0.0588,0.0704,0.0765,0.0866,0.0911,0.0925,0.0903,0.0895,0.0754,0.0709,0.0447,0.0585,0.0195,0.0142,0.0074,-0.0194,-0.0197,-0.0291,-0.0288,-0.0286,-0.0214,0,0,0,0,0]}]]